This is the latest recevied weather packets stored in our database for station/object KB9HUO. If no packets are shown the sender has not sent any weather packets the latest 10 day(s).
| Time | Temp. | Humidity | Pressure | Rain* | Wind** | Luminosity | Snow |
|---|---|---|---|---|---|---|---|
| 1777919883 | 25.56° C | 46% | 1009 hPa | 0 mm | - | 751 W/m² | - |
| 1777919580 | 25.56° C | 47% | 1009.1 hPa | 0 mm | - | 764 W/m² | - |
| 1777919278 | 25.56° C | 48% | 1009.3 hPa | 0 mm | - | 166 W/m² | - |
| 1777918975 | 25.56° C | 47% | 1009.2 hPa | 0 mm | - | 571 W/m² | - |
| 1777918673 | 25.56° C | 47% | 1009.3 hPa | 0 mm | - | 789 W/m² | - |
| 1777918370 | 25° C | 49% | 1009.5 hPa | 0 mm | - | 799 W/m² | - |
| 1777918069 | 25° C | 48% | 1009.3 hPa | 0 mm | - | 785 W/m² | - |
| 1777917767 | 25° C | 48% | 1009.3 hPa | 0 mm | - | 800 W/m² | - |
| 1777917465 | 25° C | 48% | 1009.2 hPa | 0 mm | - | 678 W/m² | - |
| 1777917161 | 25° C | 48% | 1009.2 hPa | 0 mm | - | 806 W/m² | - |
| 1777916859 | 24.44° C | 50% | 1009.3 hPa | 0 mm | - | 804 W/m² | - |
| 1777916557 | 24.44° C | 50% | 1009.3 hPa | 0 mm | - | 806 W/m² | - |
| 1777916253 | 23.89° C | 51% | 1009.5 hPa | 0 mm | - | 731 W/m² | - |
| 1777915950 | 23.89° C | 51% | 1009.5 hPa | 0 mm | - | 818 W/m² | - |
| 1777915647 | 23.89° C | 52% | 1009.2 hPa | 0 mm | - | 798 W/m² | - |
| 1777915343 | 23.33° C | 55% | 1009.5 hPa | 0 mm | - | 517 W/m² | - |
| 1777915040 | 22.78° C | 53% | 1009.6 hPa | 0 mm | - | 556 W/m² | - |
| 1777914737 | 22.78° C | 54% | 1009.6 hPa | 0 mm | - | 665 W/m² | - |
| 1777914433 | 22.78° C | 55% | 1009.7 hPa | 0 mm | - | 553 W/m² | - |
| 1777914131 | 22.22° C | 57% | 1009.5 hPa | 0 mm | - | 584 W/m² | - |
| 1777913827 | 22.22° C | 56% | 1009.8 hPa | 0 mm | - | 446 W/m² | - |
| 1777913523 | 22.22° C | 55% | 1009.7 hPa | 0 mm | - | 363 W/m² | - |
| 1777913220 | 22.78° C | 55% | 1009.5 hPa | 0 mm | - | 462 W/m² | - |
| 1777912916 | 22.78° C | 54% | 1009.7 hPa | 0 mm | - | 646 W/m² | - |
| 1777912613 | 22.78° C | 55% | 1009.7 hPa | 0 mm | - | 580 W/m² | - |
* Rain latest hour (hover to see other rain measurements)
** Current wind speed in m/s (hover to see current wind gust speed)